This is the latest recevied weather packets stored in our database for station/object K5GHS-1. If no packets are shown the sender has not sent any weather packets the latest 10 day(s).
| Time | Temp. | Humidity | Pressure | Rain* | Wind** | Luminosity | Snow |
|---|---|---|---|---|---|---|---|
| 1788706454 | 31.67° C | 71% | 1012.8 hPa | 0 mm | - | 318 W/m² | - |
| 1788706149 | 31.67° C | 71% | 1013 hPa | 0 mm | - | 285 W/m² | - |
| 1788705843 | 31.11° C | 73% | 1013 hPa | 0 mm | - | 279 W/m² | - |
| 1788705539 | 30.56° C | 74% | 1013.2 hPa | 0 mm | - | 265 W/m² | - |
| 1788705234 | 30.56° C | 73% | 1013 hPa | 0 mm | - | 234 W/m² | - |
| 1788704930 | 30.56° C | 73% | 1013 hPa | 0 mm | - | 242 W/m² | - |
| 1788704625 | 30° C | 75% | 1013 hPa | 0 mm | - | 222 W/m² | - |
| 1788704325 | 30° C | 77% | 1013.2 hPa | 0 mm | - | 207 W/m² | - |
| 1788704019 | 29.44° C | 77% | 1013.3 hPa | 0 mm | - | 193 W/m² | - |
| 1788703719 | 29.44° C | 78% | 1013.2 hPa | 0 mm | - | 170 W/m² | - |
| 1788703413 | 29.44° C | 78% | 1013 hPa | 0 mm | - | 166 W/m² | - |
| 1788703111 | 28.89° C | 80% | 1013 hPa | 0 mm | - | 156 W/m² | - |
| 1788702806 | 28.33° C | 82% | 1012.8 hPa | 0 mm | - | 140 W/m² | - |
| 1788702501 | 28.33° C | 83% | 1012.7 hPa | 0 mm | - | 131 W/m² | - |
| 1788702197 | 27.78° C | 85% | 1013 hPa | 0 mm | - | 117 W/m² | - |
| 1788701892 | 27.22° C | 87% | 1013.2 hPa | 0 mm | - | 110 W/m² | - |
| 1788701587 | 26.67° C | 87% | 1012.7 hPa | 0 mm | - | 42 W/m² | - |
| 1788701283 | 26.67° C | 88% | 1013 hPa | 0 mm | - | 40 W/m² | - |
| 1788700977 | 26.67° C | 88% | 1013 hPa | 0 mm | - | 39 W/m² | - |
| 1788700673 | 26.67° C | 89% | 1013.1 hPa | 0 mm | - | 36 W/m² | - |
| 1788700368 | 26.11° C | 90% | 1013 hPa | 0 mm | - | 34 W/m² | - |
| 1788700063 | 26.11° C | 90% | 1013.2 hPa | 0 mm | - | 32 W/m² | - |
| 1788699758 | 26.11° C | 91% | 1013.2 hPa | 0 mm | - | 29 W/m² | - |
| 1788699457 | 25.56° C | 91% | 1012.8 hPa | 0 mm | - | 26 W/m² | - |
| 1788699155 | 25.56° C | 91% | 1013 hPa | 0 mm | - | 22 W/m² | - |
* Rain latest hour (hover to see other rain measurements)
** Current wind speed in m/s (hover to see current wind gust speed)